Torna al catalogo

STARLINK-37423

AttivoComunicazioniSSO
NORAD 68852·PAYLOAD·🇺🇸 United States

Lanciato Apr 26, 2026 da Vandenberg Space Force Base

Loading…

Prossimi Passaggi (prossime 24 ore)

TLE

AggiornatoSource: CelesTrak SupGP

Epoca: Sep 15, 2026, 03:34 UTC

1 68852C 26094P   26258.14909722 -.00071821  00000+0 -22299-2 0  2581
2 68852  97.2834 271.3674 0001541  97.5323  81.6741 15.33469180    12

Traccia STARLINK-37423 in tempo reale con AllMySat

Download on the App Store